This is the latest recevied weather packets stored in our database for station/object KC1OEK-13. If no packets are shown the sender has not sent any weather packets the latest 10 day(s).
| Time | Temp. | Humidity | Pressure | Rain* | Wind** | Luminosity | Snow |
|---|---|---|---|---|---|---|---|
| 1778165535 | 12.78° C | 44% | 1012 hPa | 0 mm | - | 679 W/m² | - |
| 1778165232 | 12.78° C | 49% | 1012.1 hPa | 0 mm | - | 671 W/m² | - |
| 1778164930 | 13.33° C | 45% | 1012.1 hPa | 0 mm | - | 661 W/m² | - |
| 1778164626 | 12.78° C | 45% | 1012 hPa | 0 mm | - | 651 W/m² | - |
| 1778164324 | 12.22° C | 46% | 1012.1 hPa | 0 mm | - | 642 W/m² | - |
| 1778164019 | 11.67° C | 47% | 1012.1 hPa | 0 mm | - | 631 W/m² | - |
| 1778163716 | 11.67° C | 47% | 1012.5 hPa | 0 mm | - | 623 W/m² | - |
| 1778163412 | 11.67° C | 46% | 1012.4 hPa | 0 mm | - | 609 W/m² | - |
| 1778163109 | 11.67° C | 49% | 1012.2 hPa | 0 mm | - | 598 W/m² | - |
| 1778162806 | 11.11° C | 48% | 1012.6 hPa | 0 mm | - | 588 W/m² | - |
| 1778162503 | 11.67° C | 47% | 1012.4 hPa | 0 mm | - | 576 W/m² | - |
| 1778162200 | 11.11° C | 49% | 1012.3 hPa | 0 mm | - | 563 W/m² | - |
| 1778161898 | 11.11° C | 49% | 1012.3 hPa | 0 mm | - | 552 W/m² | - |
| 1778161594 | 11.67° C | 49% | 1012.2 hPa | 0 mm | - | 538 W/m² | - |
| 1778161290 | 11.67° C | 48% | 1012.2 hPa | 0 mm | - | 525 W/m² | - |
| 1778160986 | 11.67° C | 50% | 1012.2 hPa | 0 mm | - | 514 W/m² | - |
| 1778160683 | 11.67° C | 50% | 1012.1 hPa | 0 mm | - | 499 W/m² | - |
| 1778160380 | 10.56° C | 53% | 1012.2 hPa | 0 mm | - | 487 W/m² | - |
| 1778160076 | 11.11° C | 52% | 1012.4 hPa | 0 mm | - | 473 W/m² | - |
| 1778159773 | 11.11° C | 58% | 1012 hPa | 0 mm | - | 458 W/m² | - |
| 1778159471 | 11.67° C | 57% | 1012.1 hPa | 0 mm | - | 445 W/m² | - |
| 1778159168 | 10.56° C | 59% | 1012.2 hPa | 0 mm | - | 430 W/m² | - |
| 1778158866 | 11.11° C | 63% | 1011.9 hPa | 0 mm | - | 389 W/m² | - |
| 1778158564 | 10° C | 61% | 1012.1 hPa | 0 mm | - | 401 W/m² | - |
| 1778158261 | 10° C | 64% | 1012 hPa | 0 mm | - | 388 W/m² | - |
* Rain latest hour (hover to see other rain measurements)
** Current wind speed in m/s (hover to see current wind gust speed)